Location: �clusier
(49.9361°N, 2.7869°E)
Time: 19:33:56
(UTC+00:00)

Daily predictions for brighter satellites

Satellite Brightness Start Highest point End
(mag) Time Altitude Azimuth Time Altitude Azimuth Time Altitude Azimuth
USA 267 4.2 20:31:06 10° E 20:37:22 50° N 20:43:38 10° WNW
Cosmos 1605 Rocket 4.3 20:31:30 10° NNW 20:37:56 78° W 20:44:17 10° S
Cosmos 1624 Rocket 4.4 20:33:02 10° SSW 20:38:20 71° WNW 20:43:39 10° NNE
Cosmos 1726 2.6 20:37:19 10° NNW 20:40:56 61° W 20:44:30 10° S
Cosmos 1378 Rocket 3.9 20:36:57 10° SSW 20:41:17 70° WNW 20:45:40 10° N
Cosmos 1844 Rocket 3.2 20:35:58 10° NNW 20:41:32 52° NE 20:47:04 10° SE
Cosmos 220 Rocket 4.0 20:37:51 10° SSW 20:42:10 87° WNW 20:46:27 10° NNE
OBJECT-B 3.9 20:41:40 10° WSW 20:42:50 12° W 20:44:00 10° WNW
BREEZE-M DEB (TANK) 3.6 20:40:46 10° SSW 20:42:54 24° SE 20:46:28 10° E
Cosmos 1758 3.3 20:39:09 10° N 20:43:09 90° NNW 20:47:07 10° S
Cosmos 2285 Rocket 4.1 20:38:48 10° SSW 20:45:14 80° ESE 20:51:42 10° NNE
Okean 2 3.8 20:42:48 10° SSW 20:46:53 69° WNW 20:50:58 10° N
Meteor 2-20 4.5 20:43:49 10° S 20:49:55 84° E 20:56:03 10° NNE
Cosmos 1908 3.8 20:46:45 10° N 20:50:30 42° ENE 20:54:11 10° SSE
Cosmos 292 Rocket 3.8 20:46:00 10° SSW 20:50:49 75° ESE 20:55:39 10° NNE
Cosmos 2263 Rocket 3.5 20:49:08 10° NW 20:54:18 36° WSW 20:59:26 10° S
Lacrosse 5 rocket 2.8 20:52:28 10° SSE 20:54:26 14° SE 20:56:22 10° E
SPOT 5 3.2 20:53:34 10° SSE 20:58:37 59° ENE 21:03:27 10° N
Cosmos 1707 3.0 20:56:42 10° SSW 21:00:33 70° W 21:04:28 10° N
Cosmos 1452 Rocket 3.5 20:57:17 10° SSW 21:02:33 70° ESE 21:07:48 10° NNE
Cosmos 1459 Rocket 4.0 21:02:19 10° N 21:08:23 71° ENE 21:14:25 10° SSE
In-Cosmos 22 4.1 21:03:06 10° S 21:08:23 84° E 21:13:42 10° NNE
Resurs 01 Rocket 3.3 21:06:30 10° SSW 21:10:22 30° W 21:14:17 10° NNW
Cosmos 1850 Rocket 4.2 21:05:17 10° NNW 21:10:37 77° WSW 21:15:52 10° SSE
Terra 2.2 21:06:08 10° SE 21:10:42 53° ENE 21:15:21 10° N
Cosmos 1953 2.3 21:07:01 10° N 21:11:07 81° E 21:15:10 10° SSE
SPOT 1/Viking Rocket 4.1 21:06:19 10° S 21:11:22 57° W 21:16:27 10° NNW
Lacrosse 5 3.0 21:07:03 10° WNW 21:11:32 32° SW 21:16:01 10° SSE
Cosmos 2333 Rocket 3.3 21:09:10 10° SSE 21:13:48 26° ESE 21:18:27 10° NE
Cosmos 1025 Rocket 3.5 21:10:11 10° SSE 21:14:20 44° E 21:18:30 10° NNE
CARTOSAT-1 3.7 21:11:19 10° S 21:15:37 74° WSW 21:19:57 10° NNW
NOSS 3-2 (A) 4.4 21:12:29 10° WSW 21:18:11 53° NW 21:24:50 10° NE
NOSS 3-2 (C) 3.7 21:12:46 10° SW 21:18:30 75° NW 21:25:14 10° NE
Geosat 4.3 21:15:06 10° SSE 21:20:02 63° WSW 21:25:04 10° NW
SL-14 R/B 4.3 21:17:35 13° SSE 21:20:45 32° E 21:24:22 10° NNE
FALCON 9 DEB 3.7 21:18:44 10° SSW 21:21:51 33° SE 21:24:58 10° E
Spot 2 Rocket 3.9 21:18:24 10° S 21:23:23 62° WSW 21:28:27 10° NNW
Cosmos 2061 Rocket 4.3 21:17:31 10° N 21:23:56 62° ENE 21:29:43 13° SSE
Cosmos 1975 Rocket 3.1 21:19:50 10° SSW 21:24:11 83° W 21:28:37 10° N
Cosmos 1844 3.7 21:19:45 10° NNW 21:25:22 84° ENE 21:30:18 14° SSE
ATLAS 3B R/B 3.3 21:19:43 10° S 21:25:24 32° ESE 21:31:14 10° NE
Meteor 2-11 Rocket 4.5 21:21:24 10° N 21:27:34 86° E 21:33:25 11° S
Cosmos 1461 3.0 21:23:25 10° NW 21:27:41 67° SW 21:30:58 15° SSE
Cosmos 1331 Rocket 4.2 21:23:27 10° S 21:28:33 55° ESE 21:33:43 10° NNE
Cosmos 2219 Rocket 3.2 21:24:39 12° SSE 21:28:58 29° ESE 21:33:46 10° NE
ERS-1 Rocket 3.1 21:24:38 11° S 21:29:34 78° WSW 21:34:39 10° NNW
Cosmos 1626 2.2 21:27:13 11° S 21:30:37 60° E 21:34:16 10° NNE
Aureole 1 Rocket 4.1 21:28:08 10° NNW 21:33:44 79° WSW 21:40:17 13° SSE
SL-8 R/B 3.9 21:33:19 10° W 21:37:59 52° SSW 21:41:58 14° SE
BREEZE-M DEB (TANK) 3.3 21:35:07 10° WNW 21:38:05 27° SW 21:39:07 19° S
Cosmos 2123 Rocket 4.1 21:34:03 11° S 21:40:07 63° E 21:46:22 10° NNE
BREEZE-M DEB (TANK) 2.5 21:38:01 10° SSW 21:40:27 33° SE 21:45:08 10° ENE
KORONAS-FOTON 4.4 21:37:36 10° SSW 21:41:21 57° WNW 21:45:07 10° N
ATLAS CENTAUR R/B 1.6 21:38:30 10° NW 21:42:47 74° NE 21:46:25 16° SE
Cosmos 2237 Rocket 4.1 21:42:36 10° ESE 21:44:27 12° E 21:46:19 10° ENE
USA 215 3.8 21:38:46 10° ENE 21:44:43 36° SE 21:50:38 10° SSW
Cosmos 1867 4.3 21:41:37 10° NNW 21:46:56 48° NE 21:52:14 10° ESE
ARIANE 5 R/B 3.8 21:43:56 10° SSW 21:48:04 38° W 21:52:17 10° NNW
Cosmos 2233 Rocket 4.3 21:42:07 10° N 21:48:11 56° ENE 21:53:01 16° SSE
SL-16 R/B 3.2 21:43:35 10° SW 21:49:04 49° NW 21:54:37 10° NNE
Cosmos 2360 Rocket 2.2 21:44:46 10° SSW 21:50:26 89° WNW 21:56:07 10° NNE
Cosmos 2322 Rocket 2.9 21:46:13 10° SW 21:51:50 58° NW 21:57:29 10° NNE
Centaur D AC-29 4.2 21:34:52 10° WSW 21:54:09 20° SW 21:59:43 12° S
Cosmos 1455 4.1 21:57:24 10° NNE 22:00:19 20° ENE 22:02:38 13° ESE
Cosmos 389 Rocket 3.6 21:58:34 10° N 22:01:40 31° ENE 22:03:30 19° ESE
Cosmos 1674 4.2 21:58:41 10° SW 22:02:05 33° WNW 22:05:29 10° N
Cosmos 1544 Rocket 4.4 22:00:30 10° NNW 22:04:47 46° W 22:08:31 13° SSW
COSMOS 2428 3.2 22:01:02 16° S 22:05:17 43° ESE 22:10:42 10° NE
H-2A R/B 3.4 22:01:50 10° NNE 22:05:56 88° WNW 22:09:24 14° SSW
CENTAUR R/B 3.9 21:59:53 10° WSW 22:05:57 45° NNW 22:13:10 10° NE
Cosmos 1300 2.7 22:04:21 10° NNW 22:08:10 77° W 22:10:36 21° S
Cosmos 2322 3.7 22:02:41 10° SSW 22:08:11 64° ESE 22:13:48 10° NE
Cosmos 1606 Rocket 4.3 22:05:26 10° N 22:09:44 43° ENE 22:12:29 20° SE
Cosmos 2016 Rocket 4.3 22:04:48 10° NNW 22:10:49 62° W 22:16:04 14° S
Cosmos 2278 Rocket 2.8 22:08:19 10° NNW 22:13:51 49° NE 22:18:27 15° SE
SJ 16-02 4.2 22:14:05 10° NE 22:14:42 10° NE 22:15:18 10° NE
ALOS 2 4.0 22:11:49 14° ESE 22:14:50 28° ENE 22:18:36 10° N
Cosmos 1486 Rocket 4.2 22:11:59 10° NNW 22:17:13 67° ENE 22:20:48 20° SE
USA 267 3.4 22:13:29 10° ESE 22:20:02 79° NNE 22:26:36 10° WNW
Cosmos 1346 Rocket 3.3 22:19:17 24° SSE 22:21:16 44° E 22:25:06 10° NNE
Cosmos 1725 Rocket 4.4 22:16:09 10° NNW 22:22:13 59° W 22:27:17 15° SSW
Cosmos 1844 Rocket 3.9 22:20:15 10° NW 22:25:12 32° WSW 22:29:19 14° SSW
Meteor 2-5 Rocket 3.7 22:24:44 15° SSW 22:29:28 81° WNW 22:35:07 10° N
Cosmos 1340 3.6 22:26:35 12° SSW 22:29:51 46° WNW 22:33:31 10° N
Cosmos 968 Rocket 3.5 22:25:11 10° NNW 22:30:18 77° WSW 22:33:31 23° SSE
Lacrosse 5 rocket 0.8 22:29:21 10° SW 22:32:59 82° SE 22:36:35 10° ENE
Cosmos 405 4.4 22:30:48 10° NNW 22:33:51 29° W 22:35:50 17° SW
Cosmos 1992 Rocket 4.4 22:32:39 23° SSE 22:35:34 46° ESE 22:40:34 10° NE
Cosmos 1184 Rocket 4.3 22:38:30 21° ESE 22:39:11 22° E 22:41:48 10° NE
Cosmos 1536 Rocket 4.4 22:35:24 13° SSW 22:39:17 49° WNW 22:43:38 10° N
GEOS 3 Rocket 3.8 22:36:02 22° SSE 22:39:29 64° SW 22:44:49 10° NW
Cosmos 1607 4.3 22:36:01 10° NW 22:42:28 68° NE 22:47:53 14° SE
DNEPR-1 R/B 4.5 22:44:57 10° NW 22:48:45 33° WSW 22:50:34 23° SSW
Terra 3.7 22:45:04 10° SW 22:48:46 22° W 22:52:29 10° NW
Cosmos 1980 4.2 22:50:46 24° SSE 22:53:40 42° ESE 22:59:00 10° NE
FALCON 9 DEB 3.1 22:56:14 44° SSE 22:56:23 44° SSE 22:59:25 10° ENE
Cosmos 2333 Rocket 2.7 22:51:57 10° SW 22:57:39 63° WNW 23:03:22 10° NNE
Cosmos 1943 Rocket 3.9 22:53:14 10° NNW 22:57:55 27° NE 23:02:35 10° ESE
FALCON 9 DEB 3.4 22:55:11 10° W 22:58:35 68° NNW 23:02:00 10° ENE
Cosmos 2228 3.5 22:54:43 10° NNW 22:59:01 52° W 23:01:23 24° SSW
BREEZE-M DEB (TANK) 3.3 22:56:51 10° SW 23:04:52 40° SSE 23:07:50 10° E
Cosmos 2034 Rocket 4.3 22:59:16 10° N 23:05:25 58° ENE 23:09:25 22° SSE
Okean 1-7 Rocket 4.1 23:06:13 28° SSE 23:08:13 47° E 23:12:29 10° NNE
Cosmos 2219 Rocket 2.8 23:07:01 10° SW 23:12:37 57° NW 23:18:13 10° NNE
Uosat 12 SS-18 rocket 4.2 23:10:43 15° SW 23:14:23 84° NW 23:19:37 10° NE
SAR-Lupe-2 4.3 23:11:08 10° NNE 23:14:32 39° E 23:15:32 31° SE
ATLAS 3B R/B 2.9 23:09:05 10° SW 23:15:38 69° NW 23:22:29 10° NE
Meteor 2-10 Rocket 4.4 23:11:16 10° NNW 23:15:59 38° W 23:18:55 20° SSW
Cosmos 1503 Rocket 4.1 23:11:01 10° NNW 23:16:23 72° WSW 23:19:20 27° S
FALCON 9 DEB 2.7 23:16:35 20° WSW 23:18:34 80° SSE 23:21:40 10° ENE
FALCON 9 DEB 2.7 23:19:50 34° SW 23:21:00 69° SSE 23:24:07 10° ENE
ATLAS CENTAUR R/B 3.3 23:18:13 10° WNW 23:21:17 19° WSW 23:22:33 17° SW
SL-16 R/B 3.5 23:20:20 19° SE 23:22:40 25° ESE 23:27:13 10° NE
Cosmos 2058 Rocket 3.1 23:19:02 10° NNW 23:23:30 73° W 23:25:34 31° S
Iridium 2 4.4 23:22:59 26° SW 23:24:46 46° W 23:28:25 10° N
Cosmos 2237 Rocket 2.2 23:24:07 25° SSW 23:27:27 69° ESE 23:33:03 10° NNE
FALCON 9 DEB 2.7 23:25:34 19° WSW 23:27:39 86° SSE 23:30:47 10° ENE
USA 215 3.3 23:21:37 10° ENE 23:28:11 87° NNW 23:34:45 10° WSW
ATLAS CENTAUR R/B 3.7 23:25:37 25° S 23:28:49 48° ESE 23:41:20 10° NE
Cosmos 1867 4.2 23:25:25 10° NW 23:30:30 40° WSW 23:32:53 26° SSW
Tsikada Rocket 4.4 23:28:42 24° SSE 23:32:20 52° E 23:38:17 10° NNE
Thor Agena Rocket 4.0 23:28:42 10° NNE 23:33:50 50° E 23:36:27 27° SSE
GP-B 3.8 23:30:39 10° NNE 23:34:55 44° E 23:37:02 26° SE
Cosmos 2360 Rocket 4.5 23:30:50 10° W 23:35:13 23° NW 23:39:38 10° NNE
Cosmos 1455 3.1 23:32:29 10° NNW 23:36:03 37° W 23:37:30 27° SW
Cosmos 389 Rocket 4.4 23:33:39 10° NW 23:36:06 19° W 23:37:17 16° WSW
Cosmos 2369 Rocket 3.9 23:31:36 10° NNW 23:36:35 29° NE 23:41:32 10° ESE
Meteor 1-21 Rocket 4.2 23:39:34 25° SSW 23:42:56 84° WNW 23:48:42 10° NNE
Meteor 1-4 Rocket 2.4 23:40:13 10° N 23:43:44 77° ENE 23:44:52 40° SSE
COSMOS 2428 3.9 23:44:14 10° WSW 23:49:38 40° NW 23:55:04 10° NNE
NOSS 0 Rocket 4.1 23:45:23 16° SW 23:50:29 72° WNW 23:56:46 10° NNE
ALOS 2 3.5 23:49:12 25° SW 23:51:03 37° W 23:55:09 10° NNW
SJ 16-02 1.8 23:49:58 10° NNW 23:54:18 56° ENE 23:57:01 22° SE
